This is the latest recevied weather packets stored in our database for station/object OK1ZDJ-13. If no packets are shown the sender has not sent any weather packets the latest 10 day(s).
| Time | Temp. | Humidity | Pressure | Rain* | Wind** | Luminosity | Snow |
|---|---|---|---|---|---|---|---|
| 1777487853 | 7.78° C | 28% | 1030.3 hPa | - | - | - | - |
| 1777487253 | 8.33° C | 26% | 1030.2 hPa | - | - | - | - |
| 1777486653 | 8.89° C | 25% | 1030.1 hPa | - | - | - | - |
| 1777486053 | 8.89° C | 25% | 1030.1 hPa | - | - | - | - |
| 1777485453 | 9.44° C | 25% | 1029.8 hPa | - | - | - | - |
| 1777484853 | 10° C | 24% | 1029.6 hPa | - | - | - | - |
| 1777484253 | 10.56° C | 23% | 1029.5 hPa | - | - | - | - |
| 1777483653 | 11.11° C | 22% | 1029.4 hPa | - | - | - | - |
| 1777483058 | 11.11° C | 21% | 1029.2 hPa | - | - | - | - |
| 1777481253 | 12.22° C | 20% | 1029 hPa | - | - | - | - |
| 1777480653 | 12.78° C | 18% | 1029 hPa | - | - | - | - |
| 1777480053 | 13.33° C | 18% | 1028.9 hPa | - | - | - | - |
| 1777479454 | 14.44° C | 16% | 1028.8 hPa | - | - | - | - |
| 1777478853 | 15.56° C | 16% | 1028.6 hPa | - | - | - | - |
| 1777478253 | 16.11° C | 16% | 1028.6 hPa | - | - | - | - |
| 1777477653 | 15° C | 16% | 1028.5 hPa | - | - | - | - |
| 1777477060 | 16.67° C | 15% | 1028.5 hPa | - | - | - | - |
| 1777476452 | 17.22° C | 16% | 1028.4 hPa | - | - | - | - |
| 1777475851 | 17.22° C | 16% | 1028.3 hPa | - | - | - | - |
| 1777475251 | 17.78° C | 15% | 1028.4 hPa | - | - | - | - |
| 1777474051 | 16.11° C | 16% | 1028.2 hPa | - | - | - | - |
| 1777473452 | 15.56° C | 18% | 1028.2 hPa | - | - | - | - |
| 1777472252 | 12.78° C | 20% | 1028.2 hPa | - | - | - | - |
| 1777471651 | 12.78° C | 22% | 1028.2 hPa | - | - | - | - |
| 1777471051 | 12.78° C | 22% | 1028.1 hPa | - | - | - | - |
* Rain since midnight (hover to see other rain measurements)
** Current wind speed in m/s (hover to see current wind gust speed)